Belen, NM

6:37 AM MST on January 23, 2017 (GMT -0700)
Belen

Weather History for KE80 - December, 2013

Change the Weather History Date:

Saturday, December 14, 2013

  Actual Average (KABQ) Record (KABQ)
Temperature  
Mean Temperature 34 °F -  
Max Temperature 45 °F 45 °F 66 °F (1946)
Min Temperature 23 °F 22 °F -7 °F (1914)
Degree Days  
Heating Degree Days 31    
Moisture  
Dew Point 22 °F    
Average Humidity 68    
Maximum Humidity 91    
Minimum Humidity 36    
Precipitation  
Precipitation 0.00 in - - ()
Sea Level Pressure  
Sea Level Pressure 30.32 in    
Wind  
Wind Speed 5 mph (NNW)    
Max Wind Speed 12 mph    
Max Gust Speed -    
Visibility 10 miles    
Events      
Averages and records for this station are not official NWS values.
T = Trace of Precipitation, MM = Missing Value Source: NWS Daily Summary

Daily Weather History Graph

Daily Weather History Graph

Search for Another Location

Airport or City:

Trip Planner

Search our weather history database for the weather conditions in past years. The results will help you decide how hot, cold, wet, or windy it might be!

Date:

Astronomy

Dec. 14, 2013 Rise Set
Actual Time 7:06 AM MST 4:57 PM MST
Civil Twilight 6:38 AM MST 5:25 PM MST
Nautical Twilight 6:07 AM MST 5:57 PM MST
Astronomical Twilight 5:36 AM MST 6:28 PM MST
Moon 3:17 PM MST (12/14) 4:34 AM MST (12/14)
Length of Visible Light 10h 47m
Length of Day
9h 51m
Waxing Gibbous, 94% of the Moon is Illuminated
Dec 14
Waxing Gibbous
Dec 17
Full
Dec 25
Last Quarter
Jan 1
New
Jan 7
First Quarter

Hourly Weather History & Observations

Time (MST) Temp. Windchill Dew Point Humidity Pressure Visibility Wind Dir Wind Speed Gust Speed Precip Events Conditions
12:15 AM 28.6 °F 21.5 °F 25.0 °F 86% 30.14 in 10.0 mi NNW 6.9 mph - N/A   Scattered Clouds
12:35 AM 28.9 °F 23.9 °F 25.5 °F 87% 30.14 in 10.0 mi NNW 4.6 mph - N/A   Scattered Clouds
12:55 AM 29.1 °F 25.4 °F 25.0 °F 85% 30.13 in 10.0 mi NNE 3.5 mph - N/A   Clear
1:15 AM 29.5 °F 23.4 °F 24.4 °F 81% 30.14 in 10.0 mi NE 5.8 mph - N/A   Clear
1:35 AM 29.8 °F 24.9 °F 24.4 °F 80% 30.15 in 10.0 mi North 4.6 mph - N/A   Clear
1:55 AM 30.2 °F 25.4 °F 24.3 °F 79% 30.15 in 10.0 mi NNE 4.6 mph - N/A   Clear
2:15 AM 28.4 °F 20.4 °F 24.6 °F 86% 30.16 in 10.0 mi NNE 8.1 mph - N/A   Clear
2:35 AM 30.4 °F 24.5 °F 25.2 °F 81% 30.16 in 10.0 mi NNE 5.8 mph - N/A   Clear
2:55 AM 28.4 °F 21.2 °F 24.8 °F 86% 30.16 in 10.0 mi NE 6.9 mph - N/A   Clear
3:15 AM 28.9 °F 21.1 °F 23.9 °F 81% 30.17 in 10.0 mi NNE 8.1 mph - N/A   Clear
3:35 AM 28.4 °F 19.7 °F 23.5 °F 82% 30.17 in 10.0 mi NNE 9.2 mph - N/A   Clear
3:55 AM 28.8 °F 22.6 °F 22.8 °F 78% 30.19 in 10.0 mi North 5.8 mph - N/A   Clear
4:15 AM 24.1 °F 14.4 °F 20.1 °F 85% 30.20 in 10.0 mi WNW 9.2 mph - N/A   Clear
4:35 AM 25.0 °F 18.1 °F 22.6 °F 91% 30.20 in 10.0 mi NNW 5.8 mph - N/A   Clear
4:55 AM 25.3 °F 17.6 °F 22.8 °F 90% 30.21 in 10.0 mi North 6.9 mph - N/A   Clear
5:15 AM 23.7 °F 14.0 °F 21.4 °F 91% 30.20 in 10.0 mi North 9.2 mph - N/A   Clear
5:35 AM 24.8 °F - 20.7 °F 84% 30.21 in 10.0 mi Calm Calm - N/A   Clear
5:55 AM 25.2 °F 20.9 °F 20.8 °F 84% 30.24 in 10.0 mi North 3.5 mph - N/A   Clear
6:15 AM 24.1 °F 19.7 °F 19.8 °F 84% 30.25 in 10.0 mi NNW 3.5 mph - N/A   Clear
6:35 AM 23.7 °F 15.6 °F 19.4 °F 84% 30.27 in 10.0 mi NNW 6.9 mph - N/A   Clear
6:55 AM 23.7 °F 15.6 °F 19.9 °F 85% 30.27 in 10.0 mi NW 6.9 mph - N/A   Clear
7:15 AM 23.5 °F 15.4 °F 19.9 °F 86% 30.29 in 10.0 mi NNW 6.9 mph - N/A   Clear
7:35 AM 25.9 °F 17.4 °F 21.0 °F 82% 30.29 in 10.0 mi NNW 8.1 mph - N/A   Clear
7:55 AM 27.3 °F 19.9 °F 22.6 °F 83% 30.31 in 10.0 mi NNW 6.9 mph - N/A   Clear
8:15 AM 30.2 °F 23.4 °F 23.7 °F 77% 30.32 in 10.0 mi NNW 6.9 mph - N/A   Clear
8:35 AM 31.1 °F 26.4 °F 24.3 °F 76% 30.34 in 10.0 mi West 4.6 mph - N/A   Clear
8:55 AM 31.1 °F 26.4 °F 25.2 °F 79% 30.35 in 10.0 mi West 4.6 mph - N/A   Clear
9:15 AM 32.0 °F 24.2 °F 24.8 °F 75% 30.36 in 10.0 mi NW 9.2 mph - N/A   Clear
9:35 AM 33.1 °F 26.9 °F 24.8 °F 72% 30.38 in 10.0 mi NW 6.9 mph - N/A   Clear
9:55 AM 34.5 °F 29.4 °F 24.3 °F 66% 30.39 in 10.0 mi WNW 5.8 mph - N/A   Clear
10:15 AM 36.1 °F 31.4 °F 23.7 °F 61% 30.40 in 10.0 mi WNW 5.8 mph - N/A   Clear
10:35 AM 36.9 °F - 23.5 °F 59% 30.40 in 10.0 mi Calm Calm - N/A   Clear
10:55 AM 39.6 °F 36.3 °F 21.7 °F 49% 30.40 in 10.0 mi NNE 4.6 mph - N/A   Clear
11:15 AM 40.1 °F 36.9 °F 21.9 °F 48% 30.39 in 10.0 mi NNE 4.6 mph - N/A   Clear
11:35 AM 40.3 °F 37.1 °F 22.1 °F 48% 30.38 in 10.0 mi NNE 4.6 mph - N/A   Clear
11:55 AM 41.4 °F - 22.5 °F 47% 30.37 in 10.0 mi Calm Calm - N/A   Clear
12:15 PM 42.1 °F 39.2 °F 22.3 °F 45% 30.37 in 10.0 mi NNE 4.6 mph - N/A   Clear
12:35 PM 42.6 °F - 21.7 °F 44% 30.36 in 10.0 mi Calm Calm - N/A   Clear
12:55 PM 43.2 °F - 21.7 °F 43% 30.35 in 10.0 mi Calm Calm - N/A   Clear
1:15 PM 43.7 °F - 20.3 °F 39% 30.35 in 10.0 mi Calm Calm - N/A   Clear
1:35 PM 44.4 °F 42.0 °F 20.5 °F 39% 30.35 in 10.0 mi SSW 4.6 mph - N/A   Clear
1:55 PM 44.6 °F 41.4 °F 20.7 °F 39% 30.35 in 10.0 mi WSW 5.8 mph - N/A   Clear
2:15 PM 44.8 °F - 20.3 °F 38% 30.35 in 10.0 mi Calm Calm - N/A   Clear
2:35 PM 45.1 °F 42.8 °F 20.1 °F 37% 30.35 in 10.0 mi SSW 4.6 mph - N/A   Clear
2:55 PM 45.3 °F - 19.8 °F 36% 30.35 in 10.0 mi Calm Calm - N/A   Clear
3:15 PM 45.1 °F - 19.8 °F 36% 30.35 in 10.0 mi Calm Calm - N/A   Clear
3:35 PM 44.8 °F 43.3 °F 19.8 °F 37% 30.35 in 10.0 mi NW 3.5 mph - N/A   Clear
3:55 PM 44.6 °F - 19.4 °F 37% 30.35 in 10.0 mi Calm Calm - N/A   Clear
4:15 PM 44.2 °F - 19.2 °F 37% 30.35 in 10.0 mi Calm Calm - N/A   Clear
4:35 PM 43.0 °F - 19.4 °F 39% 30.35 in 10.0 mi Calm Calm - N/A   Clear
4:55 PM 42.6 °F - 19.2 °F 39% 30.35 in 10.0 mi Calm Calm - N/A   Clear
5:15 PM 41.0 °F - 20.5 °F 44% 30.35 in 10.0 mi Calm Calm - N/A   Clear
5:35 PM 40.3 °F - 19.9 °F 44% 30.35 in 10.0 mi Calm Calm - N/A   Clear
5:55 PM 32.4 °F - 21.7 °F 65% 30.35 in 10.0 mi Calm Calm - N/A   Clear
6:15 PM 34.3 °F - 21.6 °F 60% 30.35 in 10.0 mi Calm Calm - N/A   Clear
6:35 PM 32.5 °F - 21.2 °F 63% 30.36 in 10.0 mi Calm Calm - N/A   Clear
6:55 PM 34.5 °F 31.6 °F 20.3 °F 56% 30.37 in 10.0 mi West 3.5 mph - N/A   Clear
7:15 PM 31.6 °F - 20.8 °F 64% 30.37 in 10.0 mi Calm Calm - N/A   Clear
7:35 PM 30.4 °F 25.6 °F 21.2 °F 69% 30.37 in 10.0 mi NW 4.6 mph - N/A   Clear
7:55 PM 29.3 °F 19.6 °F 23.4 °F 78% 30.39 in 10.0 mi NNW 11.5 mph - N/A   Clear
8:15 PM 31.6 °F 23.7 °F 23.2 °F 71% 30.39 in 10.0 mi North 9.2 mph - N/A   Clear
8:35 PM 29.3 °F 25.6 °F 23.0 °F 77% 30.41 in 10.0 mi North 3.5 mph - N/A   Clear
8:55 PM 28.0 °F 21.7 °F 22.1 °F 78% 30.40 in 10.0 mi WNW 5.8 mph - N/A   Clear
9:15 PM 25.3 °F 16.0 °F 21.2 °F 84% 30.40 in 10.0 mi NW 9.2 mph - N/A   Clear
9:35 PM 25.5 °F 15.5 °F 22.1 °F 87% 30.41 in 10.0 mi WNW 10.4 mph - N/A   Clear
9:55 PM 27.1 °F 18.9 °F 22.5 °F 83% 30.40 in 10.0 mi NNW 8.1 mph - N/A   Clear
10:15 PM 25.2 °F 16.5 °F 21.0 °F 84% 30.41 in 10.0 mi NNW 8.1 mph - N/A   Clear
10:35 PM 25.7 °F 16.4 °F 21.7 °F 85% 30.41 in 10.0 mi North 9.2 mph - N/A   Clear
10:55 PM 26.4 °F 18.0 °F 21.2 °F 81% 30.41 in 10.0 mi North 8.1 mph - N/A   Clear
11:15 PM 24.6 °F 20.3 °F 20.3 °F 84% 30.42 in 10.0 mi NNW 3.5 mph - N/A   Clear
11:35 PM 24.8 °F 17.9 °F 20.1 °F 82% 30.42 in 10.0 mi North 5.8 mph - N/A   Clear
11:55 PM 25.2 °F 16.5 °F 19.8 °F 80% 30.42 in 10.0 mi NNW 8.1 mph - N/A   Clear